Location: Fours
(44.3167°N, 6.7000°E)
Time: 23:52:23
(UTC+00:00)

Okean-O - Pass Details

Date: 16 October 2021
Orbit: 638 x 640 km, 98.2° (Epoch: 26 November)

Event Time Altitude Azimuth Distance (km) Brightness Sun altitude
Exits shadow 18:07:46 20° 124° (SE) 1,468 4.0 -15.2°
Maximum altitude 18:10:14 37° 69° (ENE) 997 3.1 -15.6°
Drops below altitude 10° 18:14:20 10° 3° (N) 2,043 5.2 -16.3°
Sets 18:16:39 0° 355° (N) 2,956 6.2 -16.7°
